timestamp,wind_dir_avg,wind_spd_max_dir,wind_spd_avg,wind_spd_gust,battery_voltage,lat,long
2018-05-11 00:00:00+00:00,198.0,196.0,5.43,5.93,,47.59359,-54.27349
2018-05-11 00:10:00+00:00,206.0,216.0,5.14,6.04,,47.59359,-54.27349
2018-05-11 00:20:00+00:00,171.0,163.0,3.18,3.93,,47.59359,-54.27349
2018-05-11 00:30:00+00:00,163.0,160.0,2.5,3.32,,47.59359,-54.27349
2018-05-11 00:40:00+00:00,169.0,163.0,6.07,7.84,,47.59359,-54.27349
2018-05-11 00:50:00+00:00,188.0,186.0,5.12,5.88,,47.59359,-54.27349
2018-05-11 01:00:00+00:00,135.0,193.0,0.24,0.73,,47.59359,-54.27349
2018-05-11 01:10:00+00:00,36.0,18.0,2.03,2.66,,47.59359,-54.27349
2018-05-11 01:20:00+00:00,131.0,132.0,4.1,4.81,,47.59359,-54.27349
2018-05-11 01:30:00+00:00,162.0,164.0,4.16,5.19,,47.59359,-54.27349
2018-05-11 01:40:00+00:00,160.0,150.0,4.08,4.69,,47.59359,-54.27349
2018-05-11 01:50:00+00:00,161.0,167.0,3.0,3.78,,47.59359,-54.27349
2018-05-11 02:00:00+00:00,208.0,227.0,2.76,5.08,,47.59359,-54.27349
2018-05-11 02:10:00+00:00,123.0,82.0,1.03,1.87,,47.59359,-54.27349
2018-05-11 02:20:00+00:00,179.0,167.0,1.27,1.86,,47.59359,-54.27349
2018-05-11 02:30:00+00:00,99.0,96.0,0.98,1.47,,47.59359,-54.27349
2018-05-11 02:40:00+00:00,309.0,301.0,1.78,2.43,,47.59359,-54.27349
2018-05-11 02:50:00+00:00,331.0,323.0,1.35,1.87,,47.59359,-54.27349
2018-05-11 03:00:00+00:00,222.0,239.0,2.01,3.25,,47.59359,-54.27349
2018-05-11 03:10:00+00:00,206.0,211.0,4.17,5.43,,47.59359,-54.27349
2018-05-11 03:20:00+00:00,216.0,217.0,10.11,11.49,,47.59359,-54.27349
2018-05-11 03:30:00+00:00,206.0,218.0,8.92,10.29,,47.59359,-54.27349
2018-05-11 03:40:00+00:00,220.0,223.0,6.53,7.7,,47.59359,-54.27349
2018-05-11 03:50:00+00:00,253.0,257.0,5.1,5.98,,47.59359,-54.27349
2018-05-11 04:00:00+00:00,257.0,253.0,6.99,8.39,,47.59359,-54.27349
2018-05-11 04:10:00+00:00,265.0,257.0,7.33,8.89,,47.59359,-54.27349
2018-05-11 04:20:00+00:00,260.0,257.0,8.25,10.43,,47.59359,-54.27349
2018-05-11 04:30:00+00:00,257.0,259.0,8.35,9.58,,47.59359,-54.27349
2018-05-11 04:40:00+00:00,268.0,267.0,7.56,9.58,,47.59359,-54.27349
2018-05-11 04:50:00+00:00,262.0,261.0,12.96,14.15,,47.59359,-54.27349
2018-05-11 05:00:00+00:00,235.0,239.0,11.62,13.27,,47.59359,-54.27349
2018-05-11 05:10:00+00:00,245.0,243.0,9.57,12.18,,47.59359,-54.27349
2018-05-11 05:20:00+00:00,246.0,246.0,10.08,12.78,,47.59359,-54.27349
2018-05-11 05:30:00+00:00,251.0,259.0,10.71,12.52,,47.59359,-54.27349
2018-05-11 05:40:00+00:00,244.0,247.0,10.98,13.28,,47.59359,-54.27349
2018-05-11 05:50:00+00:00,243.0,238.0,11.35,13.21,,47.59359,-54.27349
2018-05-11 06:00:00+00:00,244.0,239.0,10.54,13.03,,47.59359,-54.27349
2018-05-11 06:10:00+00:00,247.0,252.0,9.54,11.88,,47.59359,-54.27349
2018-05-11 06:20:00+00:00,250.0,258.0,9.89,11.42,,47.59359,-54.27349
2018-05-11 06:30:00+00:00,252.0,251.0,11.01,12.18,,47.59359,-54.27349
2018-05-11 06:40:00+00:00,249.0,250.0,9.89,10.92,,47.59359,-54.27349
2018-05-11 06:50:00+00:00,248.0,239.0,9.84,10.8,,47.59359,-54.27349
2018-05-11 07:00:00+00:00,249.0,249.0,8.86,10.16,,47.59359,-54.27349
2018-05-11 07:10:00+00:00,263.0,265.0,9.5,10.58,,47.59359,-54.27349
2018-05-11 07:20:00+00:00,262.0,266.0,10.0,11.22,,47.59359,-54.27349
2018-05-11 07:30:00+00:00,259.0,261.0,9.44,11.16,,47.59359,-54.27349
2018-05-11 07:40:00+00:00,250.0,251.0,10.34,12.79,,47.59359,-54.27349
2018-05-11 07:50:00+00:00,243.0,237.0,11.72,13.51,,47.59359,-54.27349
2018-05-11 08:00:00+00:00,242.0,241.0,11.53,13.38,,47.59359,-54.27349
2018-05-11 08:10:00+00:00,235.0,240.0,11.38,12.56,,47.59359,-54.27349
2018-05-11 08:20:00+00:00,230.0,236.0,12.23,13.74,,47.59359,-54.27349
2018-05-11 08:30:00+00:00,236.0,237.0,10.77,12.51,,47.59359,-54.27349
2018-05-11 08:40:00+00:00,236.0,233.0,12.82,14.81,,47.59359,-54.27349
2018-05-11 08:50:00+00:00,233.0,233.0,11.91,13.52,,47.59359,-54.27349
2018-05-11 09:00:00+00:00,226.0,227.0,14.06,16.23,,47.59359,-54.27349
2018-05-11 09:10:00+00:00,228.0,228.0,12.71,16.22,,47.59359,-54.27349
2018-05-11 09:20:00+00:00,229.0,234.0,13.51,15.47,,47.59359,-54.27349
2018-05-11 09:30:00+00:00,228.0,226.0,12.42,14.24,,47.59359,-54.27349
2018-05-11 09:40:00+00:00,228.0,230.0,12.31,14.14,,47.59359,-54.27349
2018-05-11 09:50:00+00:00,227.0,231.0,13.36,15.95,,47.59359,-54.27349
2018-05-11 10:00:00+00:00,228.0,230.0,13.78,15.92,,47.59359,-54.27349
2018-05-11 10:10:00+00:00,229.0,232.0,13.34,15.58,,47.59359,-54.27349
2018-05-11 10:20:00+00:00,227.0,231.0,13.74,15.75,,47.59359,-54.27349
2018-05-11 10:30:00+00:00,230.0,233.0,14.28,16.15,,47.59359,-54.27349
2018-05-11 10:40:00+00:00,225.0,225.0,14.39,16.03,,47.59359,-54.27349
2018-05-11 10:50:00+00:00,228.0,231.0,13.97,16.72,,47.59359,-54.27349
2018-05-11 11:00:00+00:00,226.0,227.0,14.7,16.69,,47.59359,-54.27349
2018-05-11 11:10:00+00:00,227.0,229.0,13.38,15.48,,47.59359,-54.27349
2018-05-11 11:20:00+00:00,224.0,223.0,11.32,13.15,,47.59359,-54.27349
2018-05-11 11:30:00+00:00,227.0,230.0,12.85,14.16,,47.59359,-54.27349
2018-05-11 11:40:00+00:00,228.0,228.0,13.81,15.63,,47.59359,-54.27349
2018-05-11 11:50:00+00:00,230.0,229.0,13.08,14.47,,47.59359,-54.27349
2018-05-11 12:00:00+00:00,231.0,234.0,11.59,13.48,,47.59359,-54.27349
2018-05-11 12:10:00+00:00,229.0,228.0,12.19,13.78,,47.59359,-54.27349
2018-05-11 12:20:00+00:00,229.0,223.0,12.26,14.99,,47.59359,-54.27349
2018-05-11 12:30:00+00:00,230.0,231.0,11.07,12.95,,47.59359,-54.27349
2018-05-11 12:40:00+00:00,225.0,222.0,11.87,13.21,,47.59359,-54.27349
2018-05-11 12:50:00+00:00,228.0,231.0,10.95,13.16,,47.59359,-54.27349
2018-05-11 13:00:00+00:00,222.0,225.0,12.58,14.28,,47.59359,-54.27349
2018-05-11 13:10:00+00:00,221.0,223.0,13.06,15.42,,47.59359,-54.27349
2018-05-11 13:20:00+00:00,225.0,230.0,14.02,16.19,,47.59359,-54.27349
2018-05-11 13:30:00+00:00,225.0,229.0,14.9,17.1,,47.59359,-54.27349
2018-05-11 13:40:00+00:00,225.0,226.0,14.78,16.61,,47.59359,-54.27349
2018-05-11 13:50:00+00:00,227.0,227.0,14.71,16.73,,47.59359,-54.27349
2018-05-11 14:00:00+00:00,225.0,227.0,14.0,16.15,,47.59359,-54.27349
2018-05-11 14:10:00+00:00,227.0,230.0,14.21,16.62,,47.59359,-54.27349
2018-05-11 14:20:00+00:00,224.0,220.0,14.07,16.02,,47.59359,-54.27349
2018-05-11 14:30:00+00:00,226.0,230.0,14.06,15.94,,47.59359,-54.27349
2018-05-11 14:40:00+00:00,222.0,223.0,14.79,16.32,,47.59359,-54.27349
2018-05-11 14:50:00+00:00,225.0,228.0,15.55,16.95,,47.59359,-54.27349
2018-05-11 15:00:00+00:00,226.0,225.0,14.4,16.24,,47.59359,-54.27349
2018-05-11 15:10:00+00:00,224.0,228.0,14.72,16.68,,47.59359,-54.27349
2018-05-11 15:20:00+00:00,223.0,221.0,13.7,15.52,,47.59359,-54.27349
2018-05-11 15:30:00+00:00,219.0,224.0,13.46,15.15,,47.59359,-54.27349
2018-05-11 15:40:00+00:00,217.0,219.0,14.42,17.78,,47.59359,-54.27349
2018-05-11 15:50:00+00:00,222.0,226.0,14.89,17.23,,47.59359,-54.27349
2018-05-11 16:00:00+00:00,224.0,233.0,15.96,18.23,,47.59359,-54.27349
2018-05-11 16:10:00+00:00,227.0,231.0,16.18,19.17,,47.59359,-54.27349
2018-05-11 16:20:00+00:00,225.0,225.0,14.49,17.55,,47.59359,-54.27349
2018-05-11 16:30:00+00:00,223.0,226.0,12.77,15.14,,47.59359,-54.27349
2018-05-11 16:40:00+00:00,225.0,229.0,14.11,16.45,,47.59359,-54.27349
2018-05-11 16:50:00+00:00,225.0,228.0,13.97,16.4,,47.59359,-54.27349
2018-05-11 17:00:00+00:00,224.0,223.0,13.87,15.64,,47.59359,-54.27349
2018-05-11 17:10:00+00:00,225.0,224.0,13.27,14.75,,47.59359,-54.27349
2018-05-11 17:20:00+00:00,225.0,228.0,12.39,13.86,,47.59359,-54.27349
2018-05-11 17:30:00+00:00,224.0,218.0,12.24,13.79,,47.59359,-54.27349
2018-05-11 17:40:00+00:00,221.0,218.0,12.29,14.56,,47.59359,-54.27349
2018-05-11 17:50:00+00:00,223.0,224.0,13.78,15.31,,47.59359,-54.27349
2018-05-11 18:00:00+00:00,228.0,229.0,13.18,14.83,,47.59359,-54.27349
2018-05-11 18:10:00+00:00,231.0,229.0,12.72,14.1,,47.59359,-54.27349
2018-05-11 18:20:00+00:00,229.0,229.0,10.65,11.54,,47.59359,-54.27349
2018-05-11 18:30:00+00:00,225.0,227.0,10.88,12.11,,47.59359,-54.27349
2018-05-11 18:40:00+00:00,229.0,231.0,10.64,12.19,,47.59359,-54.27349
2018-05-11 18:50:00+00:00,226.0,221.0,10.45,11.7,,47.59359,-54.27349
2018-05-11 19:00:00+00:00,230.0,235.0,10.27,12.04,,47.59359,-54.27349
2018-05-11 19:10:00+00:00,226.0,223.0,9.73,10.97,,47.59359,-54.27349
2018-05-11 19:20:00+00:00,227.0,229.0,9.69,10.33,,47.59359,-54.27349
2018-05-11 19:30:00+00:00,229.0,231.0,8.15,9.0,,47.59359,-54.27349
2018-05-11 19:40:00+00:00,227.0,229.0,8.08,8.62,,47.59359,-54.27349
2018-05-11 19:50:00+00:00,220.0,221.0,9.93,11.06,,47.59359,-54.27349
2018-05-11 20:00:00+00:00,218.0,218.0,9.67,11.08,,47.59359,-54.27349
2018-05-11 20:10:00+00:00,224.0,225.0,11.17,12.7,,47.59359,-54.27349
2018-05-11 20:20:00+00:00,223.0,224.0,10.82,12.3,,47.59359,-54.27349
2018-05-11 20:30:00+00:00,222.0,219.0,10.22,11.75,,47.59359,-54.27349
2018-05-11 20:40:00+00:00,220.0,220.0,9.76,10.69,,47.59359,-54.27349
2018-05-11 20:50:00+00:00,218.0,219.0,8.82,9.59,,47.59359,-54.27349
2018-05-11 21:00:00+00:00,223.0,223.0,10.27,11.34,,47.59359,-54.27349
2018-05-11 21:10:00+00:00,224.0,227.0,8.59,9.44,,47.59359,-54.27349
2018-05-11 21:20:00+00:00,223.0,221.0,9.05,10.45,,47.59359,-54.27349
2018-05-11 21:30:00+00:00,217.0,219.0,9.49,10.99,,47.59359,-54.27349
2018-05-11 21:40:00+00:00,221.0,218.0,9.26,10.44,,47.59359,-54.27349
2018-05-11 21:50:00+00:00,221.0,220.0,8.47,9.12,,47.59359,-54.27349
2018-05-11 22:00:00+00:00,220.0,218.0,8.35,9.47,,47.59359,-54.27349
2018-05-11 22:10:00+00:00,222.0,222.0,9.88,11.28,,47.59359,-54.27349
2018-05-11 22:20:00+00:00,227.0,232.0,9.96,11.52,,47.59359,-54.27349
2018-05-11 22:30:00+00:00,225.0,225.0,10.41,11.87,,47.59359,-54.27349
2018-05-11 22:40:00+00:00,227.0,229.0,10.47,11.35,,47.59359,-54.27349
2018-05-11 22:50:00+00:00,226.0,230.0,10.37,11.69,,47.59359,-54.27349
2018-05-11 23:00:00+00:00,228.0,230.0,8.62,9.96,,47.59359,-54.27349
2018-05-11 23:10:00+00:00,242.0,246.0,9.29,10.42,,47.59359,-54.27349
2018-05-11 23:20:00+00:00,248.0,251.0,8.56,9.56,,47.59359,-54.27349
2018-05-11 23:30:00+00:00,247.0,250.0,8.55,9.43,,47.59359,-54.27349
2018-05-11 23:40:00+00:00,245.0,248.0,8.67,9.72,,47.59359,-54.27349
2018-05-11 23:50:00+00:00,247.0,247.0,9.01,10.1,,47.59359,-54.27349
